Springfield, OH

9:32 PM EDT on September 19, 2017 (GMT -0400)
Springfield-Beckley Municipal

Weather History for KSGH - December, 2013

Change the Weather History Date:

Saturday, December 14, 2013

  Actual Average (KFFO) Record (KFFO)
Temperature  
Mean Temperature 30 °F -  
Max Temperature 35 °F 39 °F 64 °F (2015)
Min Temperature 26 °F 25 °F 4 °F (2016)
Degree Days  
Heating Degree Days 34    
Moisture  
Dew Point 32 °F    
Average Humidity 99    
Maximum Humidity 100    
Minimum Humidity 93    
Precipitation  
Precipitation 0.27 in - - ()
Sea Level Pressure  
Sea Level Pressure 29.93 in    
Wind  
Wind Speed 9 mph (ESE)    
Max Wind Speed 16 mph    
Max Gust Speed -    
Visibility 2 miles    
Events Fog , Rain , Snow    
Averages and records for this station are not official NWS values.
T = Trace of Precipitation, MM = Missing Value Source: NWS Daily Summary

Daily Weather History Graph

Daily Weather History Graph

Search for Another Location

Airport or City:

Trip Planner

Search our weather history database for the weather conditions in past years. The results will help you decide how hot, cold, wet, or windy it might be!

Date:

Astronomy

Dec. 14, 2013 Rise Set
Actual Time 7:49 AM EST 5:11 PM EST
Civil Twilight 7:18 AM EST 5:41 PM EST
Nautical Twilight 6:44 AM EST 6:15 PM EST
Astronomical Twilight 6:11 AM EST 6:48 PM EST
Moon 3:32 PM EST (12/14) 5:09 AM EST (12/14)
Length of Visible Light 10h 23m
Length of Day
9h 22m
Waxing Gibbous, 93% of the Moon is Illuminated
Dec 14
Waxing Gibbous
Dec 17
Full
Dec 25
Last Quarter
Jan 1
New
Jan 7
First Quarter

Hourly Weather History & Observations

Time (EST) Temp. Windchill Dew Point Humidity Pressure Visibility Wind Dir Wind Speed Gust Speed Precip Events Conditions
12:25 AM 30.2 °F 24.3 °F 28.4 °F 93% 30.16 in 3.0 mi ENE 5.8 mph - 0.00 in Snow Light Snow
12:32 AM 30.2 °F 24.3 °F 30.2 °F 100% 30.16 in 2.5 mi ENE 5.8 mph - 0.00 in Snow Light Snow
12:38 AM 30.2 °F 24.3 °F 30.2 °F 100% 30.16 in 2.5 mi ENE 5.8 mph - 0.00 in Snow Light Snow
12:44 AM 30.2 °F 25.4 °F 30.2 °F 100% 30.15 in 3.0 mi ENE 4.6 mph - 0.00 in Snow Light Snow
12:47 AM 30.2 °F 25.4 °F 30.2 °F 100% 30.16 in 2.5 mi East 4.6 mph - 0.00 in Snow Light Snow
12:56 AM 30.0 °F 25.2 °F 30.0 °F 100% 30.19 in 1.8 mi NE 4.6 mph - 0.02 in Snow Light Snow
1:05 AM 30.2 °F 25.4 °F 30.2 °F 100% 30.15 in 2.0 mi NE 4.6 mph - 0.00 in Snow Light Snow
1:14 AM 30.2 °F 25.4 °F 30.2 °F 100% 30.14 in 2.5 mi ENE 4.6 mph - 0.00 in Snow Light Snow
1:22 AM 30.2 °F 24.3 °F 30.2 °F 100% 30.14 in 3.0 mi NE 5.8 mph - 0.00 in   Overcast
1:28 AM 30.2 °F 25.4 °F 30.2 °F 100% 30.14 in 2.5 mi NE 4.6 mph - 0.00 in Snow Light Snow
1:44 AM 30.2 °F 24.3 °F 30.2 °F 100% 30.14 in 4.0 mi NE 5.8 mph - 0.00 in Snow Light Snow
1:56 AM 30.0 °F 23.2 °F 30.0 °F 100% 30.17 in 4.0 mi NE 6.9 mph - 0.00 in   Mostly Cloudy
2:15 AM 30.2 °F 22.6 °F 30.2 °F 100% 30.14 in 4.0 mi ENE 8.1 mph - 0.00 in   Mostly Cloudy
2:26 AM 30.2 °F 22.6 °F 30.2 °F 100% 30.13 in 3.0 mi ENE 8.1 mph - 0.00 in   Mostly Cloudy
2:56 AM 30.0 °F 22.4 °F 30.0 °F 100% 30.17 in 4.0 mi ENE 8.1 mph - 0.00 in   Overcast
3:41 AM 30.2 °F 22.6 °F 30.2 °F 100% 30.12 in 4.0 mi East 8.1 mph - 0.00 in   Overcast
3:56 AM 31.1 °F 23.7 °F 30.0 °F 96% 30.15 in 2.5 mi East 8.1 mph - 0.00 in   Overcast
4:24 AM 30.2 °F 21.9 °F 30.2 °F 100% 30.10 in 2.0 mi East 9.2 mph - 0.00 in   Overcast
4:33 AM 30.2 °F 21.3 °F 30.2 °F 100% 30.10 in 1.5 mi East 10.4 mph - 0.00 in Snow Light Snow
4:56 AM 31.1 °F 22.4 °F 30.0 °F 96% 30.12 in 1.5 mi East 10.4 mph - 0.00 in Snow Light Snow
5:03 AM 30.2 °F 21.3 °F 30.2 °F 100% 30.08 in 3.0 mi East 10.4 mph - 0.00 in Snow Light Snow
5:17 AM 30.2 °F 21.3 °F 30.2 °F 100% 30.09 in 1.8 mi East 10.4 mph - 0.00 in Snow Light Snow
5:27 AM 30.2 °F 21.3 °F 30.2 °F 100% 30.08 in 2.5 mi East 10.4 mph - 0.00 in Snow Light Snow
5:34 AM 30.2 °F 20.8 °F 30.2 °F 100% 30.08 in 3.0 mi East 11.5 mph - 0.00 in Snow Light Snow
5:46 AM 30.2 °F 21.3 °F 30.2 °F 100% 30.08 in 2.0 mi East 10.4 mph - 0.00 in Snow Light Snow
5:56 AM 31.1 °F 21.9 °F 30.0 °F 96% 30.11 in 2.5 mi East 11.5 mph - 0.00 in Snow Light Snow
6:04 AM 30.2 °F 20.8 °F 30.2 °F 100% 30.07 in 1.5 mi East 11.5 mph - 0.01 in Snow Light Snow
6:46 AM 30.2 °F 20.8 °F 30.2 °F 100% 30.04 in 3.0 mi East 11.5 mph - 0.01 in Snow Light Snow
6:56 AM 31.1 °F 21.4 °F 31.1 °F 100% 30.07 in 4.0 mi ESE 12.7 mph - 0.01 in   Mostly Cloudy
7:12 AM 30.2 °F 20.2 °F 30.2 °F 100% 30.04 in 3.0 mi ESE 12.7 mph - 0.00 in Snow Light Snow
7:15 AM 30.2 °F 20.8 °F 30.2 °F 100% 30.04 in 2.0 mi ESE 11.5 mph - 0.00 in Snow Light Snow
7:19 AM 30.2 °F 20.8 °F 30.2 °F 100% 30.04 in 1.5 mi ESE 11.5 mph - 0.00 in Snow Light Snow
7:27 AM 30.2 °F 20.2 °F 30.2 °F 100% 30.04 in 1.8 mi ESE 12.7 mph - 0.00 in Snow Light Snow
7:34 AM 30.2 °F 20.2 °F 30.2 °F 100% 30.03 in 2.5 mi ESE 12.7 mph - 0.00 in Snow Light Snow
7:41 AM 30.2 °F 19.8 °F 30.2 °F 100% 30.03 in 3.0 mi ESE 13.8 mph - 0.00 in Snow Light Snow
7:56 AM 31.1 °F 22.4 °F 31.1 °F 100% 30.06 in 1.5 mi ESE 10.4 mph - 0.00 in Snow Light Snow
8:04 AM 32.0 °F 23.0 °F 30.2 °F 93% 30.03 in 1.2 mi ESE 11.5 mph - 0.00 in Snow Light Snow
8:11 AM 32.0 °F 22.5 °F 30.2 °F 93% 30.02 in 1.0 mi ESE 12.7 mph - 0.01 in Snow Light Snow
8:17 AM 32.0 °F 23.0 °F 32.0 °F 100% 30.02 in 1.5 mi ESE 11.5 mph - 0.01 in Snow Light Snow
8:26 AM 32.0 °F 23.0 °F 32.0 °F 100% 30.02 in 2.5 mi ESE 11.5 mph - 0.01 in Snow Light Snow
8:56 AM 32.9 °F 23.7 °F 32.0 °F 96% 30.02 in 2.0 mi ESE 12.7 mph - 0.01 in Rain Light Rain
9:37 AM 33.8 °F 24.8 °F 33.8 °F 100% 29.99 in 1.5 mi ESE 12.7 mph - 0.02 in Snow Light Snow
9:56 AM 32.9 °F 23.2 °F 32.9 °F 100% 30.00 in 1.0 mi ESE 13.8 mph - 0.03 in Snow Light Snow
10:27 AM 33.8 °F 24.3 °F 33.8 °F 100% 29.95 in 1.2 mi ESE 13.8 mph - 0.01 in Snow Light Snow
10:34 AM 33.8 °F 23.5 °F 33.8 °F 100% 29.95 in 1.5 mi ESE 16.1 mph - 0.01 in Snow Light Snow
10:47 AM 33.8 °F 23.9 °F 33.8 °F 100% 29.93 in 1.2 mi ESE 15.0 mph - 0.01 in Snow Light Snow
10:56 AM 32.9 °F 22.4 °F 32.9 °F 100% 29.95 in 1.2 mi ESE 16.1 mph - 0.02 in Snow Light Snow
11:00 AM 33.8 °F 23.9 °F 33.8 °F 100% 29.91 in 1.5 mi ESE 15.0 mph - 0.00 in Snow Light Snow
11:12 AM 33.8 °F 23.9 °F 33.8 °F 100% 29.90 in 2.0 mi ESE 15.0 mph - 0.00 in Snow Light Snow
11:23 AM 33.8 °F 23.5 °F 33.8 °F 100% 29.89 in 3.0 mi ESE 16.1 mph - 0.01 in Snow Light Snow
11:56 AM 34.0 °F 24.6 °F 32.9 °F 96% 29.89 in 2.5 mi East 13.8 mph - 0.04 in   Overcast
12:31 PM 33.8 °F 25.8 °F 33.8 °F 100% 29.84 in 1.8 mi East 10.4 mph - 0.05 in   Overcast
12:44 PM 33.8 °F 25.8 °F 33.8 °F 100% 29.82 in 2.0 mi East 10.4 mph - 0.06 in   Overcast
12:56 PM 34.0 °F 25.5 °F 32.9 °F 96% 29.84 in 2.5 mi East 11.5 mph - 0.07 in Rain Light Rain
1:30 PM 35.6 °F 27.5 °F 33.8 °F 93% 29.77 in 3.0 mi East 11.5 mph - 0.02 in Rain Light Rain
1:41 PM 35.6 °F 28.0 °F 33.8 °F 93% 29.77 in 2.5 mi East 10.4 mph - 0.03 in Rain Light Rain
1:56 PM 34.9 °F 26.6 °F 34.0 °F 97% 29.78 in 2.0 mi ESE 11.5 mph - 0.03 in Rain Light Rain
2:06 PM 35.6 °F 27.1 °F 33.8 °F 93% 29.74 in 3.0 mi ESE 12.7 mph - 0.00 in Rain Light Rain
2:23 PM 35.6 °F 27.5 °F 33.8 °F 93% 29.73 in 2.5 mi ESE 11.5 mph - 0.00 in Rain Light Rain
2:30 PM 35.6 °F 27.1 °F 33.8 °F 93% 29.73 in 1.2 mi ESE 12.7 mph - 0.01 in Rain Light Rain
2:39 PM 33.8 °F 25.3 °F 33.8 °F 100% 29.73 in 1.0 mi ESE 11.5 mph - 0.01 in Rain Light Rain
2:56 PM 34.0 °F 26.6 °F 34.0 °F 100% 29.75 in 1.0 mi ESE 9.2 mph - 0.02 in Rain Light Rain
3:37 PM 35.6 °F 32.8 °F 33.8 °F 93% 29.73 in 0.8 mi ESE 3.5 mph - 0.00 in   Overcast
3:56 PM 34.9 °F 27.1 °F 34.9 °F 100% 29.75 in 1.0 mi ESE 10.4 mph - 0.00 in   Overcast
4:05 PM 35.6 °F 31.7 °F 35.6 °F 100% 29.72 in 1.2 mi SE 4.6 mph - 0.00 in   Overcast
4:23 PM 35.6 °F 30.7 °F 35.6 °F 100% 29.72 in 1.0 mi SE 5.8 mph - 0.00 in   Overcast
4:48 PM 35.6 °F 30.7 °F 33.8 °F 93% 29.71 in 0.8 mi SE 5.8 mph - 0.01 in Rain Light Rain
4:56 PM 34.9 °F 29.0 °F 34.0 °F 97% 29.75 in 1.2 mi SSE 6.9 mph - 0.01 in Rain Light Rain
5:25 PM 35.6 °F 31.7 °F 35.6 °F 100% 29.71 in 2.0 mi SSE 4.6 mph - 0.01 in Rain Light Rain
5:38 PM 35.6 °F 31.7 °F 35.6 °F 100% 29.71 in 3.0 mi South 4.6 mph - 0.01 in Rain Light Rain
5:56 PM 34.0 °F 31.0 °F 34.0 °F 100% 29.74 in 2.0 mi South 3.5 mph - 0.01 in Rain Light Rain
6:07 PM 35.6 °F 31.7 °F 35.6 °F 100% 29.72 in 1.8 mi SSW 4.6 mph - 0.00 in Rain Light Rain
6:14 PM 35.6 °F 32.8 °F 35.6 °F 100% 29.71 in 2.0 mi South 3.5 mph - 0.00 in   Overcast
6:35 PM 35.6 °F 30.7 °F 35.6 °F 100% 29.71 in 3.0 mi SSW 5.8 mph - 0.00 in   Overcast
6:56 PM 34.9 °F 29.0 °F 34.9 °F 100% 29.74 in 2.0 mi SW 6.9 mph - 0.00 in   Overcast
7:01 PM 35.6 °F 29.9 °F 35.6 °F 100% 29.71 in 1.2 mi SW 6.9 mph - N/A   Overcast
7:10 PM 35.6 °F 28.6 °F 35.6 °F 100% 29.71 in 1.0 mi SW 9.2 mph - N/A   Overcast
7:17 PM 35.6 °F 28.6 °F 35.6 °F 100% 29.71 in 0.8 mi SW 9.2 mph - N/A   Overcast
7:35 PM 35.6 °F 27.5 °F 35.6 °F 100% 29.72 in 1.0 mi WSW 11.5 mph - N/A   Overcast
7:42 PM 35.6 °F 28.0 °F 35.6 °F 100% 29.72 in 0.8 mi WSW 10.4 mph - N/A   Overcast
7:49 PM 35.6 °F 28.6 °F 35.6 °F 100% 29.72 in 0.5 mi WSW 9.2 mph - N/A Fog Fog
7:56 PM 34.9 °F 25.7 °F 34.9 °F 100% 29.75 in 0.5 mi West 13.8 mph - N/A Fog Fog
8:10 PM 35.6 °F 27.5 °F 35.6 °F 100% 29.73 in 0.2 mi West 11.5 mph - N/A Fog Fog
8:56 PM 34.0 °F 25.0 °F 34.0 °F 100% 29.76 in 0.2 mi West 12.7 mph - N/A Fog Fog
9:56 PM 32.0 °F 22.1 °F 32.0 °F 100% 29.79 in 0.2 mi WNW 13.8 mph - N/A Fog Fog
10:33 PM 30.2 °F 20.2 °F 30.2 °F 100% 29.78 in 0.5 mi WNW 12.7 mph - N/A Fog Light Freezing Fog
10:56 PM 29.1 °F 18.4 °F 29.1 °F 100% 29.83 in 0.5 mi West 13.8 mph - N/A Fog Light Freezing Fog
11:12 PM 28.4 °F 16.6 °F 28.4 °F 100% 29.80 in 0.8 mi West 16.1 mph - N/A   Overcast
11:25 PM 28.4 °F 17.0 °F 28.4 °F 100% 29.81 in 1.0 mi WNW 15.0 mph - N/A   Overcast
11:46 PM 26.6 °F - 26.6 °F 100% 29.82 in 1.2 mi Calm Calm - N/A   Overcast
11:56 PM 26.1 °F - 26.1 °F 100% 29.86 in 1.2 mi Calm Calm - 0.00 in   Overcast